USC703 MMMY-KDCA

Flight info

Callsign USC703
Flight time 3h 22m
Altitude 37000
Route OVEMA1A OVEMA J29 MIXIE/N0428F390 J29 ELD Q32 SWAPP Q34 SITTR TRUPS5
Aircraft LJ35/M-SDFGRWYS/EB2

Departure

Time 2026-04-15 03:59
Airport Monterrey International Airport (MMMY)

Arrival

Time 2026-04-15 07:21
Airport Ronald Reagan Washington National Airport (KDCA)
Time Latitude Longitude Altitude Speed Heading
2026-04-15 03:37 25.77402 -100.10864 1272 ft 0 kts 76°
2026-04-15 03:51 25.77406 -100.10850 1272 ft 4 kts 57°
2026-04-15 03:52 25.77430 -100.10799 1273 ft 10 kts 67°
2026-04-15 03:52 25.77501 -100.10746 1272 ft 15 kts 22°
2026-04-15 03:52 25.77584 -100.10708 1271 ft 15 kts
2026-04-15 03:52 25.77608 -100.10704 1270 ft 1 kts
2026-04-15 03:54 25.77657 -100.10741 1269 ft 14 kts 301°
2026-04-15 03:54 25.77717 -100.10848 1266 ft 18 kts 300°
2026-04-15 03:54 25.77788 -100.10973 1266 ft 20 kts 303°
2026-04-15 03:55 25.77943 -100.11259 1270 ft 23 kts 301°
2026-04-15 03:55 25.78029 -100.11409 1273 ft 23 kts 301°
2026-04-15 03:55 25.78115 -100.11568 1276 ft 24 kts 302°
2026-04-15 03:55 25.78207 -100.11723 1279 ft 12 kts 300°
2026-04-15 03:56 25.78209 -100.11727 1279 ft 0 kts 298°
2026-04-15 03:56 25.78222 -100.11756 1280 ft 8 kts 296°
2026-04-15 03:57 25.78258 -100.11799 1281 ft 8 kts 349°
2026-04-15 03:57 25.78303 -100.11783 1281 ft 7 kts 30°
2026-04-15 03:57 25.78351 -100.11751 1282 ft 9 kts 31°
2026-04-15 03:57 25.78402 -100.11705 1283 ft 10 kts 87°
2026-04-15 03:58 25.78367 -100.11632 1282 ft 14 kts 121°
2026-04-15 03:58 25.78205 -100.11330 1274 ft 78 kts 121°
2026-04-15 03:58 25.77813 -100.10622 1265 ft 136 kts 122°
2026-04-15 03:58 25.77236 -100.09584 1548 ft 173 kts 118°
2026-04-15 03:59 25.76593 -100.08368 2149 ft 191 kts 120°
2026-04-15 03:59 25.75908 -100.07065 3019 ft 199 kts 122°
2026-04-15 03:59 25.75197 -100.05726 3881 ft 202 kts 122°
2026-04-15 03:59 25.74484 -100.04377 4679 ft 204 kts 123°
2026-04-15 04:00 25.73763 -100.03014 5417 ft 207 kts 124°
2026-04-15 04:00 25.73020 -100.01614 6189 ft 214 kts 124°
2026-04-15 04:00 25.72242 -100.00151 6743 ft 232 kts 124°
2026-04-15 04:00 25.71383 -99.98535 7100 ft 254 kts 123°
2026-04-15 04:01 25.70486 -99.96748 7474 ft 276 kts 120°
2026-04-15 04:01 25.69575 -99.94852 8245 ft 276 kts 120°
2026-04-15 04:01 25.69068 -99.92761 8896 ft 291 kts 96°
2026-04-15 04:01 25.69452 -99.90537 9601 ft 300 kts 68°
2026-04-15 04:02 25.70674 -99.88646 10273 ft 307 kts 44°
2026-04-15 04:02 25.72527 -99.87434 10869 ft 314 kts 18°
2026-04-15 04:02 25.74689 -99.87142 11498 ft 317 kts 354°
2026-04-15 04:02 25.76806 -99.87804 12137 ft 317 kts 334°
2026-04-15 04:03 25.78854 -99.88645 12895 ft 319 kts 338°
2026-04-15 04:03 25.80965 -99.89475 13548 ft 323 kts 336°
2026-04-15 04:03 25.83051 -99.90419 14183 ft 324 kts 333°
2026-04-15 04:03 25.85088 -99.91507 14769 ft 327 kts 332°
2026-04-15 04:04 25.87303 -99.92220 15323 ft 337 kts 351°
2026-04-15 04:04 25.89654 -99.92186 15942 ft 342 kts
2026-04-15 04:04 25.91946 -99.91417 16475 ft 349 kts 24°
2026-04-15 04:04 25.93983 -99.89956 17129 ft 351 kts 40°
2026-04-15 04:05 25.95699 -99.88004 17654 ft 355 kts 47°
2026-04-15 04:05 25.97390 -99.85990 18236 ft 357 kts 47°
2026-04-15 04:05 25.99072 -99.83939 18702 ft 360 kts 48°
2026-04-15 04:05 26.00752 -99.81855 19150 ft 364 kts 48°
2026-04-15 04:06 26.02460 -99.79770 19609 ft 367 kts 47°
2026-04-15 04:06 26.04197 -99.77683 20081 ft 369 kts 47°
2026-04-15 04:06 26.05940 -99.75567 20529 ft 372 kts 47°
2026-04-15 04:06 26.07685 -99.73422 20984 ft 375 kts 47°
2026-04-15 04:07 26.09451 -99.71263 21421 ft 378 kts 47°
2026-04-15 04:07 26.11237 -99.69089 21858 ft 381 kts 47°
2026-04-15 04:07 26.13029 -99.66901 22284 ft 384 kts 47°
2026-04-15 04:07 26.14831 -99.64697 22723 ft 387 kts 48°
2026-04-15 04:08 26.16626 -99.62501 23165 ft 390 kts 48°
2026-04-15 04:08 26.18459 -99.60259 23592 ft 393 kts 48°
2026-04-15 04:08 26.20305 -99.58001 23940 ft 396 kts 48°
2026-04-15 04:08 26.22167 -99.55721 24294 ft 399 kts 48°
2026-04-15 04:09 26.24039 -99.53427 24657 ft 401 kts 48°
2026-04-15 04:09 26.25924 -99.51114 24993 ft 406 kts 48°
2026-04-15 04:09 26.27834 -99.48773 25308 ft 410 kts 48°
2026-04-15 04:09 26.29757 -99.46416 25674 ft 413 kts 48°
2026-04-15 04:10 26.31685 -99.44047 26155 ft 412 kts 48°
2026-04-15 04:10 26.33621 -99.41669 26492 ft 416 kts 48°
2026-04-15 04:10 26.35547 -99.39302 26851 ft 419 kts 48°
2026-04-15 04:10 26.37510 -99.36889 27213 ft 422 kts 48°
2026-04-15 04:11 26.39484 -99.34460 27567 ft 424 kts 48°
2026-04-15 04:11 26.41470 -99.32015 27924 ft 427 kts 48°
2026-04-15 04:11 26.43479 -99.29541 28266 ft 430 kts 48°
2026-04-15 04:11 26.45554 -99.27123 28605 ft 433 kts 45°
2026-04-15 04:12 26.47673 -99.24727 28936 ft 436 kts 46°
2026-04-15 04:12 26.49795 -99.22294 29266 ft 438 kts 46°
2026-04-15 04:12 26.51926 -99.19847 29552 ft 441 kts 46°
2026-04-15 04:12 26.54078 -99.17395 29839 ft 443 kts 46°
2026-04-15 04:13 26.56160 -99.14845 30119 ft 445 kts 49°
2026-04-15 04:13 26.58226 -99.12253 30357 ft 448 kts 48°
2026-04-15 04:13 26.60325 -99.09651 30561 ft 452 kts 48°
2026-04-15 04:13 26.62433 -99.07039 30866 ft 452 kts 48°
2026-04-15 04:14 26.64532 -99.04416 31099 ft 454 kts 48°
2026-04-15 04:14 26.66639 -99.01775 31338 ft 456 kts 47°
2026-04-15 04:14 26.68736 -98.99159 31555 ft 458 kts 47°
2026-04-15 04:14 26.70869 -98.96501 31799 ft 460 kts 47°
2026-04-15 04:15 26.73010 -98.93824 32042 ft 463 kts 47°
2026-04-15 04:15 26.75162 -98.91127 32276 ft 465 kts 47°
2026-04-15 04:15 26.77321 -98.88424 32507 ft 467 kts 47°
2026-04-15 04:15 26.79490 -98.85710 32736 ft 469 kts 47°
2026-04-15 04:16 26.81671 -98.82977 32961 ft 471 kts 47°
2026-04-15 04:16 26.83854 -98.80239 33177 ft 473 kts 46°
2026-04-15 04:16 26.86050 -98.77481 33392 ft 475 kts 46°
2026-04-15 04:16 26.88253 -98.74716 33601 ft 477 kts 46°
2026-04-15 04:17 26.90465 -98.71938 33821 ft 479 kts 46°
2026-04-15 04:17 26.92686 -98.69143 33976 ft 480 kts 46°
2026-04-15 04:17 26.94911 -98.66342 34124 ft 482 kts 46°
2026-04-15 04:17 26.97148 -98.63528 34273 ft 484 kts 46°
2026-04-15 04:18 26.99391 -98.60704 34410 ft 486 kts 46°
2026-04-15 04:18 27.01638 -98.57870 34540 ft 487 kts 46°
2026-04-15 04:18 27.03129 -98.55989 34630 ft 488 kts 46°
2026-04-15 04:18 27.06153 -98.52174 34819 ft 491 kts 46°
2026-04-15 04:19 27.07659 -98.50271 34921 ft 491 kts 46°
2026-04-15 04:19 27.09938 -98.47392 35058 ft 493 kts 46°
2026-04-15 04:19 27.12927 -98.43609 35700 ft 487 kts 45°
2026-04-15 04:19 27.15150 -98.40792 36422 ft 478 kts 45°
2026-04-15 04:20 27.17339 -98.38021 36988 ft 475 kts 44°
2026-04-15 04:20 27.21092 -98.33283 36992 ft 492 kts 44°
2026-04-15 04:21 27.25712 -98.27405 37012 ft 510 kts 45°
2026-04-15 04:21 27.30440 -98.21402 37014 ft 521 kts 45°
2026-04-15 04:22 27.35210 -98.15323 37013 ft 515 kts 45°
2026-04-15 04:22 27.39947 -98.09293 37014 ft 512 kts 45°
2026-04-15 04:23 27.44589 -98.03366 37042 ft 510 kts 45°
2026-04-15 04:23 27.49277 -97.97377 37041 ft 508 kts 45°
2026-04-15 04:24 27.53937 -97.91413 37028 ft 506 kts 45°
2026-04-15 04:24 27.58579 -97.85465 37027 ft 505 kts 45°
2026-04-15 04:25 27.63152 -97.79595 37021 ft 504 kts 45°
2026-04-15 04:25 27.67745 -97.73696 37034 ft 504 kts 45°
2026-04-15 04:26 27.72365 -97.67748 37038 ft 504 kts 45°
2026-04-15 04:26 27.76981 -97.61801 37038 ft 504 kts 45°
2026-04-15 04:27 27.81593 -97.55856 37050 ft 502 kts 45°
2026-04-15 04:27 27.86172 -97.49927 37055 ft 500 kts 45°
2026-04-15 04:28 27.90743 -97.44021 37017 ft 499 kts 46°
2026-04-15 04:28 27.95279 -97.38087 37015 ft 498 kts 46°
2026-04-15 04:29 27.99814 -97.32156 37012 ft 498 kts 46°
2026-04-15 04:29 28.04341 -97.26227 37019 ft 498 kts 46°
2026-04-15 04:30 28.08863 -97.20292 37044 ft 498 kts 46°
2026-04-15 04:30 28.13391 -97.14347 37027 ft 498 kts 46°
2026-04-15 04:31 28.17891 -97.08425 37028 ft 498 kts 46°
2026-04-15 04:31 28.22419 -97.02463 37034 ft 498 kts 46°
2026-04-15 04:32 28.26939 -96.96496 37042 ft 498 kts 46°
2026-04-15 04:32 28.31462 -96.90525 37043 ft 498 kts 46°
2026-04-15 04:33 28.35972 -96.84555 37044 ft 498 kts 46°
2026-04-15 04:33 28.40482 -96.78581 37038 ft 497 kts 46°
2026-04-15 04:34 28.44973 -96.72622 37038 ft 496 kts 46°
2026-04-15 04:34 28.49456 -96.66665 37039 ft 496 kts 46°
2026-04-15 04:35 28.53911 -96.60735 37061 ft 496 kts 46°
2026-04-15 04:35 28.58395 -96.54760 37052 ft 496 kts 46°
2026-04-15 04:36 28.62877 -96.48778 37059 ft 497 kts 46°
2026-04-15 04:36 28.67357 -96.42797 37048 ft 496 kts 47°
2026-04-15 04:37 28.71816 -96.36817 37055 ft 495 kts 47°
2026-04-15 04:37 28.76373 -96.30959 37053 ft 491 kts 39°
2026-04-15 04:38 28.81813 -96.26363 37070 ft 486 kts 30°
2026-04-15 04:38 28.87360 -96.21941 37047 ft 487 kts 31°
2026-04-15 04:39 28.92930 -96.17505 37048 ft 487 kts 30°
2026-04-15 04:39 28.98454 -96.13104 37050 ft 487 kts 31°
2026-04-15 04:40 29.04015 -96.08658 37040 ft 487 kts 31°
2026-04-15 04:40 29.09561 -96.04225 37068 ft 485 kts 30°
2026-04-15 04:41 29.15089 -95.99797 37075 ft 485 kts 31°
2026-04-15 04:41 29.20613 -95.95373 37073 ft 484 kts 31°
2026-04-15 04:42 29.26126 -95.90943 37072 ft 484 kts 31°
2026-04-15 04:42 29.31649 -95.86506 37066 ft 484 kts 31°
2026-04-15 04:43 29.37165 -95.82063 37055 ft 484 kts 31°
2026-04-15 04:43 29.42645 -95.77648 37065 ft 485 kts 31°
2026-04-15 04:44 29.48167 -95.73189 37062 ft 486 kts 31°
2026-04-15 04:44 29.53689 -95.68720 37075 ft 485 kts 31°
2026-04-15 04:45 29.59195 -95.64273 37074 ft 483 kts 31°
2026-04-15 04:45 29.64690 -95.59813 37058 ft 483 kts 31°
2026-04-15 04:46 29.70180 -95.55362 37063 ft 482 kts 31°
2026-04-15 04:46 29.78380 -95.48694 37075 ft 483 kts 31°
2026-04-15 04:47 29.83864 -95.44228 37085 ft 483 kts 31°
2026-04-15 04:47 29.89347 -95.39756 37089 ft 483 kts 31°
2026-04-15 04:48 29.94828 -95.35281 37092 ft 483 kts 31°
2026-04-15 04:48 30.00430 -95.31021 37079 ft 481 kts 29°
2026-04-15 04:49 30.06009 -95.26753 37089 ft 481 kts 30°
2026-04-15 04:49 30.11613 -95.22529 37086 ft 481 kts 29°
2026-04-15 04:50 30.17201 -95.18279 37079 ft 481 kts 30°
2026-04-15 04:50 30.22763 -95.14053 37076 ft 481 kts 29°
2026-04-15 04:51 30.28351 -95.09802 37082 ft 481 kts 30°
2026-04-15 04:51 30.33950 -95.05533 37076 ft 482 kts 29°
2026-04-15 04:52 30.39559 -95.01254 37077 ft 483 kts 30°
2026-04-15 04:52 30.45168 -94.96966 37075 ft 483 kts 30°
2026-04-15 04:53 30.50780 -94.92673 37062 ft 483 kts 30°
2026-04-15 04:53 30.56383 -94.88374 37064 ft 482 kts 30°
2026-04-15 04:54 30.61979 -94.84083 37068 ft 482 kts 30°
2026-04-15 04:54 30.67567 -94.79784 37068 ft 482 kts 30°
2026-04-15 04:55 30.73166 -94.75477 37068 ft 482 kts 30°
2026-04-15 04:55 30.78753 -94.71169 37070 ft 482 kts 30°
2026-04-15 04:56 30.84345 -94.66853 37071 ft 482 kts 30°
2026-04-15 04:56 30.89896 -94.62561 37079 ft 483 kts 29°
2026-04-15 04:57 30.95515 -94.58215 37076 ft 485 kts 29°
2026-04-15 04:57 31.01128 -94.53860 37068 ft 484 kts 29°
2026-04-15 04:58 31.06737 -94.49508 37073 ft 483 kts 29°
2026-04-15 04:58 31.12345 -94.45147 37074 ft 483 kts 29°
2026-04-15 04:59 31.17939 -94.40791 37085 ft 484 kts 29°
2026-04-15 04:59 31.23553 -94.36417 37084 ft 485 kts 29°
2026-04-15 05:00 31.29174 -94.32018 37084 ft 486 kts 29°
2026-04-15 05:00 31.34764 -94.27661 37089 ft 486 kts 29°
2026-04-15 05:01 31.40389 -94.23248 37092 ft 486 kts 29°
2026-04-15 05:01 31.46025 -94.18835 37102 ft 486 kts 29°
2026-04-15 05:02 31.51645 -94.14419 37104 ft 486 kts 30°
2026-04-15 05:02 31.57263 -94.10001 37104 ft 486 kts 29°
2026-04-15 05:03 31.62886 -94.05574 37100 ft 487 kts 30°
2026-04-15 05:03 31.68503 -94.01141 37098 ft 486 kts 29°
2026-04-15 05:04 31.74125 -93.96703 37127 ft 487 kts 30°
2026-04-15 05:04 31.79734 -93.92265 37095 ft 489 kts 30°
2026-04-15 05:05 31.85386 -93.87783 37095 ft 490 kts 30°
2026-04-15 05:05 31.90088 -93.84052 37095 ft 490 kts 30°
2026-04-15 05:06 31.95751 -93.79551 37077 ft 490 kts 30°
2026-04-15 05:06 32.01395 -93.75057 37080 ft 490 kts 30°
2026-04-15 05:07 32.07049 -93.70551 37092 ft 491 kts 30°
2026-04-15 05:07 32.12719 -93.66022 37091 ft 492 kts 30°
2026-04-15 05:08 32.18386 -93.61491 37085 ft 492 kts 30°
2026-04-15 05:08 32.24049 -93.56955 37085 ft 492 kts 30°
2026-04-15 05:09 32.29716 -93.52410 37084 ft 492 kts 30°
2026-04-15 05:09 32.35396 -93.47847 37083 ft 494 kts 30°
2026-04-15 05:10 32.41089 -93.43266 37082 ft 495 kts 30°
2026-04-15 05:10 32.46788 -93.38673 37092 ft 495 kts 30°
2026-04-15 05:11 32.52445 -93.34107 37097 ft 495 kts 30°
2026-04-15 05:11 32.58182 -93.29469 37118 ft 496 kts 30°
2026-04-15 05:12 32.63852 -93.24880 37095 ft 497 kts 30°
2026-04-15 05:12 32.69566 -93.20244 37100 ft 497 kts 30°
2026-04-15 05:13 32.75315 -93.15576 37099 ft 498 kts 30°
2026-04-15 05:13 32.80992 -93.10957 37096 ft 498 kts 30°
2026-04-15 05:14 32.86713 -93.06296 37086 ft 499 kts 30°
2026-04-15 05:14 32.92430 -93.01621 37071 ft 498 kts 30°
2026-04-15 05:15 32.98144 -92.96965 37075 ft 497 kts 30°
2026-04-15 05:15 33.03837 -92.92293 37075 ft 497 kts 30°
2026-04-15 05:16 33.09532 -92.87630 37073 ft 497 kts 30°
2026-04-15 05:16 33.15227 -92.82947 37082 ft 497 kts 30°
2026-04-15 05:17 33.20924 -92.78254 37087 ft 498 kts 31°
2026-04-15 05:17 33.23580 -92.75541 37074 ft 504 kts 42°
2026-04-15 05:17 33.25852 -92.72348 37069 ft 507 kts 52°
2026-04-15 05:18 33.27686 -92.68752 37074 ft 508 kts 63°
2026-04-15 05:18 33.29136 -92.64898 37078 ft 508 kts 66°
2026-04-15 05:18 33.31951 -92.57216 37081 ft 507 kts 65°
2026-04-15 05:19 33.34810 -92.49488 37079 ft 507 kts 66°
2026-04-15 05:19 33.37641 -92.41737 37086 ft 507 kts 66°
2026-04-15 05:20 33.40481 -92.34005 37089 ft 507 kts 66°
2026-04-15 05:20 33.43299 -92.26266 37085 ft 507 kts 66°
2026-04-15 05:21 33.46127 -92.18529 37078 ft 507 kts 66°
2026-04-15 05:21 33.48918 -92.10833 37084 ft 507 kts 66°
2026-04-15 05:22 33.51733 -92.03081 37083 ft 507 kts 66°
2026-04-15 05:22 33.54536 -91.95329 37086 ft 507 kts 66°
2026-04-15 05:23 33.57337 -91.87572 37084 ft 506 kts 66°
2026-04-15 05:23 33.60127 -91.79824 37084 ft 506 kts 66°
2026-04-15 05:24 33.62912 -91.72071 37090 ft 506 kts 66°
2026-04-15 05:24 33.65689 -91.64323 37091 ft 505 kts 66°
2026-04-15 05:25 33.68462 -91.56566 37095 ft 506 kts 66°
2026-04-15 05:25 33.71233 -91.48797 37090 ft 506 kts 66°
2026-04-15 05:26 33.73999 -91.41026 37091 ft 506 kts 66°
2026-04-15 05:26 33.76764 -91.33234 37088 ft 506 kts 66°
2026-04-15 05:27 33.79518 -91.25458 37091 ft 506 kts 66°
2026-04-15 05:27 33.82266 -91.17678 37094 ft 505 kts 66°
2026-04-15 05:28 33.85005 -91.09900 37094 ft 504 kts 66°
2026-04-15 05:28 33.87742 -91.02124 37098 ft 504 kts 66°
2026-04-15 05:29 33.90446 -90.94407 37097 ft 503 kts 66°
2026-04-15 05:29 33.93164 -90.86634 37078 ft 503 kts 66°
2026-04-15 05:30 33.95876 -90.78856 37093 ft 504 kts 66°
2026-04-15 05:30 33.98586 -90.71067 37090 ft 504 kts 66°
2026-04-15 05:31 34.01289 -90.63280 37092 ft 503 kts 66°
2026-04-15 05:31 34.03984 -90.55494 37092 ft 503 kts 66°
2026-04-15 05:32 34.06672 -90.47710 37092 ft 503 kts 66°
2026-04-15 05:32 34.09339 -90.39970 37090 ft 503 kts 66°
2026-04-15 05:33 34.12016 -90.32179 37087 ft 502 kts 66°
2026-04-15 05:33 34.14785 -90.24445 37091 ft 501 kts 64°
2026-04-15 05:34 34.17621 -90.16760 37087 ft 501 kts 64°
2026-04-15 05:34 34.20463 -90.09073 37091 ft 501 kts 64°
2026-04-15 05:35 34.23299 -90.01376 37109 ft 502 kts 64°
2026-04-15 05:35 34.26130 -89.93670 37107 ft 501 kts 64°
2026-04-15 05:36 34.28961 -89.85963 37101 ft 501 kts 64°
2026-04-15 05:36 34.31780 -89.78247 37100 ft 501 kts 64°
2026-04-15 05:37 34.34582 -89.70579 37132 ft 501 kts 64°
2026-04-15 05:37 34.37395 -89.62848 37136 ft 501 kts 64°
2026-04-15 05:38 34.40205 -89.55115 37144 ft 501 kts 64°
2026-04-15 05:38 34.43006 -89.47384 37254 ft 500 kts 64°
2026-04-15 05:39 34.44400 -89.43532 37643 ft 499 kts 64°
2026-04-15 05:39 34.45792 -89.39677 37990 ft 499 kts 64°
2026-04-15 05:39 34.47181 -89.35830 38368 ft 499 kts 64°
2026-04-15 05:39 34.48572 -89.31971 38741 ft 500 kts 64°
2026-04-15 05:40 34.49963 -89.28108 39032 ft 500 kts 64°
2026-04-15 05:40 34.51344 -89.24266 39105 ft 507 kts 64°
2026-04-15 05:40 34.54186 -89.16354 39110 ft 516 kts 64°
2026-04-15 05:41 34.57053 -89.08338 39122 ft 517 kts 64°
2026-04-15 05:41 34.59890 -89.00392 39120 ft 510 kts 64°
2026-04-15 05:42 34.62726 -88.92501 39111 ft 508 kts 62°
2026-04-15 05:42 34.64497 -88.88827 39104 ft 503 kts 51°
2026-04-15 05:42 34.66662 -88.85516 39113 ft 498 kts 45°
2026-04-15 05:43 34.71154 -88.79127 39115 ft 497 kts 45°
2026-04-15 05:43 34.75573 -88.72741 39121 ft 497 kts 45°
2026-04-15 05:44 34.80068 -88.66320 39125 ft 498 kts 45°
2026-04-15 05:44 34.84526 -88.59872 39125 ft 498 kts 45°
2026-04-15 05:45 34.89003 -88.53431 39125 ft 498 kts 45°
2026-04-15 05:45 34.93469 -88.46964 39120 ft 498 kts 45°
2026-04-15 05:46 34.97903 -88.40548 39125 ft 497 kts 45°
2026-04-15 05:46 35.02352 -88.34086 39121 ft 498 kts 45°
2026-04-15 05:47 35.06804 -88.27623 39120 ft 498 kts 45°
2026-04-15 05:47 35.11258 -88.21132 39120 ft 498 kts 45°
2026-04-15 05:48 35.15710 -88.14639 39105 ft 498 kts 45°
2026-04-15 05:48 35.20163 -88.08126 39119 ft 498 kts 45°
2026-04-15 05:49 35.24596 -88.01631 39120 ft 497 kts 45°
2026-04-15 05:49 35.29031 -87.95132 39117 ft 497 kts 45°
2026-04-15 05:50 35.32707 -87.89720 39125 ft 497 kts 45°
2026-04-15 05:51 35.39347 -87.79945 39120 ft 497 kts 45°
2026-04-15 05:51 35.43763 -87.73424 39119 ft 497 kts 45°
2026-04-15 05:52 35.48175 -87.66896 39139 ft 497 kts 45°
2026-04-15 05:52 35.52591 -87.60353 39118 ft 498 kts 45°
2026-04-15 05:53 35.57009 -87.53792 39116 ft 499 kts 45°
2026-04-15 05:53 35.61441 -87.47195 39115 ft 499 kts 45°
2026-04-15 05:54 35.65861 -87.40611 39114 ft 499 kts 45°
2026-04-15 05:54 35.70277 -87.34013 39119 ft 500 kts 45°
2026-04-15 05:55 35.74690 -87.27409 39116 ft 500 kts 45°
2026-04-15 05:55 35.79108 -87.20787 39115 ft 501 kts 45°
2026-04-15 05:56 35.83524 -87.14151 39112 ft 501 kts 45°
2026-04-15 05:56 35.87944 -87.07502 39114 ft 501 kts 45°
2026-04-15 05:57 35.92336 -87.00876 39109 ft 501 kts 45°
2026-04-15 05:57 35.96757 -86.94197 39098 ft 501 kts 45°
2026-04-15 05:58 36.01126 -86.87582 39102 ft 499 kts 45°
2026-04-15 05:58 36.05515 -86.80928 39131 ft 498 kts 45°
2026-04-15 05:59 36.09886 -86.74280 39132 ft 498 kts 45°
2026-04-15 05:59 36.13954 -86.67304 39119 ft 507 kts 57°
2026-04-15 06:00 36.16703 -86.59209 39120 ft 511 kts 64°
2026-04-15 06:00 36.19356 -86.51049 39126 ft 509 kts 64°
2026-04-15 06:01 36.21989 -86.42914 39151 ft 509 kts 65°
2026-04-15 06:01 36.24610 -86.34760 39149 ft 509 kts 64°
2026-04-15 06:02 36.27235 -86.26620 39151 ft 509 kts 65°
2026-04-15 06:02 36.29839 -86.18470 39134 ft 508 kts 64°
2026-04-15 06:03 36.32431 -86.10382 39135 ft 506 kts 65°
2026-04-15 06:03 36.35008 -86.02282 39134 ft 504 kts 65°
2026-04-15 06:04 36.37586 -85.94183 39138 ft 504 kts 65°
2026-04-15 06:04 36.40153 -85.86083 39128 ft 504 kts 65°
2026-04-15 06:05 36.42714 -85.77987 39151 ft 504 kts 65°
2026-04-15 06:05 36.45271 -85.69875 39139 ft 504 kts 66°
2026-04-15 06:06 36.47815 -85.61770 39123 ft 503 kts 66°
2026-04-15 06:06 36.50360 -85.53668 39134 ft 503 kts 66°
2026-04-15 06:07 36.52876 -85.45605 39134 ft 503 kts 66°
2026-04-15 06:07 36.55407 -85.37496 39132 ft 502 kts 66°
2026-04-15 06:08 36.57922 -85.29397 39124 ft 501 kts 66°
2026-04-15 06:08 36.60429 -85.21316 39126 ft 501 kts 66°
2026-04-15 06:09 36.62929 -85.13221 39134 ft 501 kts 66°
2026-04-15 06:09 36.65426 -85.05123 39137 ft 501 kts 66°
2026-04-15 06:10 36.67912 -84.97019 39144 ft 499 kts 65°
2026-04-15 06:10 36.70395 -84.88937 39148 ft 499 kts 66°
2026-04-15 06:11 36.72861 -84.80852 39150 ft 499 kts 66°
2026-04-15 06:11 36.75327 -84.72763 39147 ft 498 kts 66°
2026-04-15 06:12 36.77782 -84.64678 39138 ft 498 kts 65°
2026-04-15 06:12 36.80221 -84.56635 39134 ft 498 kts 66°
2026-04-15 06:13 36.82661 -84.48548 39113 ft 498 kts 66°
2026-04-15 06:13 36.85099 -84.40456 39115 ft 498 kts 66°
2026-04-15 06:14 36.87528 -84.32350 39155 ft 499 kts 65°
2026-04-15 06:14 36.89967 -84.24232 39157 ft 499 kts 65°
2026-04-15 06:15 36.92390 -84.16099 39154 ft 499 kts 65°
2026-04-15 06:15 36.94815 -84.07960 39138 ft 499 kts 65°
2026-04-15 06:16 36.97229 -83.99822 39141 ft 499 kts 65°
2026-04-15 06:16 36.99637 -83.91684 39138 ft 499 kts 65°
2026-04-15 06:17 37.02026 -83.83590 39129 ft 499 kts 65°
2026-04-15 06:17 37.04421 -83.75445 39124 ft 499 kts 65°
2026-04-15 06:18 37.06818 -83.67271 39131 ft 499 kts 65°
2026-04-15 06:18 37.09212 -83.59089 39114 ft 500 kts 65°
2026-04-15 06:19 37.11597 -83.50898 39112 ft 501 kts 65°
2026-04-15 06:19 37.13987 -83.42687 39111 ft 501 kts 65°
2026-04-15 06:20 37.16366 -83.34469 39108 ft 501 kts 65°
2026-04-15 06:20 37.18742 -83.26251 39110 ft 501 kts 65°
2026-04-15 06:21 37.21098 -83.18071 39106 ft 502 kts 65°
2026-04-15 06:21 37.23461 -83.09839 39099 ft 501 kts 65°
2026-04-15 06:22 37.25820 -83.01604 39100 ft 501 kts 65°
2026-04-15 06:22 37.28172 -82.93356 39110 ft 502 kts 65°
2026-04-15 06:23 37.30523 -82.85099 39101 ft 502 kts 65°
2026-04-15 06:23 37.32873 -82.76815 39106 ft 503 kts 65°
2026-04-15 06:24 37.35217 -82.68523 39108 ft 503 kts 66°
2026-04-15 06:24 37.37552 -82.60243 39113 ft 502 kts 66°
2026-04-15 06:25 37.39876 -82.51966 39112 ft 502 kts 66°
2026-04-15 06:25 37.42201 -82.43678 39086 ft 502 kts 66°
2026-04-15 06:26 37.44501 -82.35440 39092 ft 502 kts 66°
2026-04-15 06:26 37.46814 -82.27132 39091 ft 503 kts 66°
2026-04-15 06:27 37.49123 -82.18806 39088 ft 503 kts 66°
2026-04-15 06:27 37.51428 -82.10482 39090 ft 502 kts 66°
2026-04-15 06:28 37.53719 -82.02174 39088 ft 503 kts 66°
2026-04-15 06:28 37.55998 -81.93876 39085 ft 501 kts 66°
2026-04-15 06:29 37.58280 -81.85563 39087 ft 502 kts 66°
2026-04-15 06:29 37.60553 -81.77235 39093 ft 503 kts 66°
2026-04-15 06:30 37.62825 -81.68892 39094 ft 503 kts 66°
2026-04-15 06:30 37.65090 -81.60552 39100 ft 503 kts 66°
2026-04-15 06:31 37.67346 -81.52189 39106 ft 503 kts 66°
2026-04-15 06:31 37.69603 -81.43841 39134 ft 502 kts 66°
2026-04-15 06:32 37.71843 -81.35498 39158 ft 502 kts 66°
2026-04-15 06:32 37.74077 -81.27158 39173 ft 501 kts 66°
2026-04-15 06:33 37.76308 -81.18807 39182 ft 501 kts 66°
2026-04-15 06:33 37.78654 -81.10522 39170 ft 496 kts 60°
2026-04-15 06:34 37.81487 -81.02639 39176 ft 496 kts 60°
2026-04-15 06:34 37.84281 -80.94666 39179 ft 495 kts 60°
2026-04-15 06:35 37.86647 -80.87999 39152 ft 495 kts 60°
2026-04-15 06:35 37.89449 -80.80035 39135 ft 494 kts 60°
2026-04-15 06:36 37.92278 -80.72157 39120 ft 495 kts 60°
2026-04-15 06:36 37.95089 -80.64197 39116 ft 495 kts 60°
2026-04-15 06:37 37.97909 -80.56248 39124 ft 494 kts 60°
2026-04-15 06:37 38.00711 -80.48298 39119 ft 494 kts 60°
2026-04-15 06:38 38.03520 -80.40338 39127 ft 494 kts 60°
2026-04-15 06:38 38.06312 -80.32374 39127 ft 494 kts 60°
2026-04-15 06:39 38.09107 -80.24404 39129 ft 494 kts 60°
2026-04-15 06:39 38.11937 -80.16465 39136 ft 494 kts 60°
2026-04-15 06:40 38.14762 -80.08512 39130 ft 494 kts 60°
2026-04-15 06:40 38.17573 -80.00551 39131 ft 493 kts 60°
2026-04-15 06:41 38.20386 -79.92596 39126 ft 493 kts 60°
2026-04-15 06:41 38.23189 -79.84625 39125 ft 493 kts 61°
2026-04-15 06:42 38.25985 -79.76660 39128 ft 492 kts 60°
2026-04-15 06:42 38.28765 -79.68695 39113 ft 493 kts 61°
2026-04-15 06:43 38.31499 -79.60690 39128 ft 492 kts 61°
2026-04-15 06:43 38.34239 -79.52754 39111 ft 493 kts 61°
2026-04-15 06:44 38.36968 -79.44753 39120 ft 492 kts 61°
2026-04-15 06:44 38.39709 -79.36741 39103 ft 492 kts 61°
2026-04-15 06:45 38.42339 -79.28672 39084 ft 496 kts 68°
2026-04-15 06:45 38.43897 -79.20063 39078 ft 498 kts 73°
2026-04-15 06:46 38.45436 -79.11441 39073 ft 497 kts 73°
2026-04-15 06:46 38.46936 -79.02813 39079 ft 498 kts 73°
2026-04-15 06:47 38.48441 -78.94192 39077 ft 498 kts 73°
2026-04-15 06:47 38.49938 -78.85565 39077 ft 498 kts 73°
2026-04-15 06:48 38.51300 -78.76882 39070 ft 498 kts 74°
2026-04-15 06:48 38.52684 -78.68261 39066 ft 499 kts 75°
2026-04-15 06:49 38.54038 -78.59568 39060 ft 499 kts 74°
2026-04-15 06:49 38.55463 -78.50829 39062 ft 500 kts 74°
2026-04-15 06:50 38.57517 -78.37846 39058 ft 489 kts 73°
2026-04-15 06:50 38.58269 -78.33668 39045 ft 476 kts 73°
2026-04-15 06:50 38.58968 -78.29587 39041 ft 465 kts 73°
2026-04-15 06:51 38.59660 -78.25594 39036 ft 453 kts 71°
2026-04-15 06:51 38.60694 -78.21837 38784 ft 445 kts 60°
2026-04-15 06:51 38.61923 -78.18222 38546 ft 443 kts 61°
2026-04-15 06:51 38.63090 -78.14584 38299 ft 441 kts 63°
2026-04-15 06:52 38.64225 -78.10950 38015 ft 440 kts 62°
2026-04-15 06:52 38.65389 -78.07332 37390 ft 437 kts 62°
2026-04-15 06:52 38.66573 -78.03728 36463 ft 440 kts 62°
2026-04-15 06:52 38.67747 -78.00098 35612 ft 442 kts 62°
2026-04-15 06:53 38.68904 -77.96448 34770 ft 442 kts 63°
2026-04-15 06:53 38.70066 -77.92797 33927 ft 442 kts 63°
2026-04-15 06:53 38.71239 -77.89151 32907 ft 444 kts 62°
2026-04-15 06:53 38.72417 -77.85488 31845 ft 446 kts 63°
2026-04-15 06:54 38.73569 -77.81763 30722 ft 452 kts 66°
2026-04-15 06:54 38.74183 -77.77821 29518 ft 464 kts 83°
2026-04-15 06:54 38.73951 -77.73686 28231 ft 469 kts 101°
2026-04-15 06:54 38.72852 -77.69711 26973 ft 468 kts 118°
2026-04-15 06:55 38.71011 -77.66314 25698 ft 463 kts 135°
2026-04-15 06:55 38.68568 -77.63694 24389 ft 456 kts 151°
2026-04-15 06:55 38.65757 -77.62043 22952 ft 445 kts 168°
2026-04-15 06:55 38.62806 -77.61579 22257 ft 411 kts 186°
2026-04-15 06:56 38.60123 -77.62209 21659 ft 377 kts 205°
2026-04-15 06:56 38.57934 -77.63775 21060 ft 348 kts 224°
2026-04-15 06:56 38.56326 -77.65953 20503 ft 328 kts 234°
2026-04-15 06:56 38.55008 -77.68239 19965 ft 313 kts 241°
2026-04-15 06:57 38.53998 -77.70629 19432 ft 300 kts 248°
2026-04-15 06:57 38.53302 -77.73098 18902 ft 290 kts 256°
2026-04-15 06:57 38.52797 -77.75562 18238 ft 287 kts 256°
2026-04-15 06:57 38.52181 -77.78005 17237 ft 292 kts 251°
2026-04-15 06:58 38.51369 -77.80432 16064 ft 301 kts 247°
2026-04-15 06:58 38.50505 -77.82920 15651 ft 302 kts 249°
2026-04-15 06:58 38.49736 -77.85399 15247 ft 299 kts 253°
2026-04-15 06:58 38.49312 -77.87986 14830 ft 297 kts 264°
2026-04-15 06:59 38.49286 -77.90607 14432 ft 296 kts 275°
2026-04-15 06:59 38.49657 -77.93187 14047 ft 295 kts 285°
2026-04-15 06:59 38.50409 -77.95620 13667 ft 294 kts 295°
2026-04-15 06:59 38.51510 -77.97818 13232 ft 296 kts 306°
2026-04-15 07:00 38.52934 -77.99713 12851 ft 296 kts 317°
2026-04-15 07:00 38.54616 -78.01221 12478 ft 297 kts 327°
2026-04-15 07:00 38.56510 -78.02287 12113 ft 298 kts 339°
2026-04-15 07:00 38.58535 -78.02858 11769 ft 299 kts 349°
2026-04-15 07:01 38.60625 -78.02911 11429 ft 302 kts
2026-04-15 07:01 38.62689 -78.02430 11114 ft 303 kts 13°
2026-04-15 07:01 38.64636 -78.01426 10960 ft 300 kts 24°
2026-04-15 07:01 38.66380 -77.99967 10951 ft 299 kts 36°
2026-04-15 07:02 38.67872 -77.98085 10932 ft 304 kts 47°
2026-04-15 07:02 38.69058 -77.95824 10927 ft 308 kts 59°
2026-04-15 07:02 38.69917 -77.93296 10938 ft 310 kts 66°
2026-04-15 07:02 38.70716 -77.90766 10938 ft 311 kts 66°
2026-04-15 07:03 38.71542 -77.88208 10948 ft 309 kts 65°
2026-04-15 07:03 38.72357 -77.85669 10945 ft 307 kts 66°
2026-04-15 07:03 38.73216 -77.83180 10947 ft 304 kts 58°
2026-04-15 07:03 38.74474 -77.81030 10943 ft 300 kts 45°
2026-04-15 07:04 38.75870 -77.79050 10943 ft 299 kts 45°
2026-04-15 07:04 38.77247 -77.77064 10949 ft 298 kts 46°
2026-04-15 07:04 38.78617 -77.75080 10941 ft 297 kts 45°
2026-04-15 07:04 38.79993 -77.73098 10942 ft 296 kts 45°
2026-04-15 07:05 38.81360 -77.71125 10946 ft 296 kts 45°
2026-04-15 07:05 38.82521 -77.68939 10936 ft 299 kts 62°
2026-04-15 07:05 38.83387 -77.66514 10938 ft 299 kts 63°
2026-04-15 07:05 38.84265 -77.64099 10936 ft 298 kts 63°
2026-04-15 07:06 38.85149 -77.61692 10933 ft 298 kts 63°
2026-04-15 07:06 38.86027 -77.59281 10925 ft 298 kts 63°
2026-04-15 07:06 38.86899 -77.56874 10930 ft 297 kts 63°
2026-04-15 07:06 38.87735 -77.54559 10922 ft 273 kts 63°
2026-04-15 07:07 38.88541 -77.52339 10021 ft 284 kts 62°
2026-04-15 07:07 38.89417 -77.49942 8744 ft 306 kts 63°
2026-04-15 07:07 38.90026 -77.47397 8244 ft 297 kts 79°
2026-04-15 07:07 38.90137 -77.44825 7950 ft 282 kts 92°
2026-04-15 07:08 38.89799 -77.42404 7638 ft 270 kts 106°
2026-04-15 07:08 38.89085 -77.40230 7343 ft 260 kts 119°
2026-04-15 07:08 38.88191 -77.38221 7068 ft 266 kts 119°
2026-04-15 07:08 38.87245 -77.36037 6773 ft 291 kts 118°
2026-04-15 07:09 38.86247 -77.33731 6459 ft 300 kts 119°
2026-04-15 07:09 38.85210 -77.31354 6116 ft 306 kts 119°
2026-04-15 07:09 38.84175 -77.28998 6003 ft 298 kts 119°
2026-04-15 07:09 38.83146 -77.26732 5998 ft 289 kts 120°
2026-04-15 07:10 38.82161 -77.24563 5994 ft 282 kts 120°
2026-04-15 07:10 38.81193 -77.22411 5967 ft 276 kts 120°
2026-04-15 07:10 38.80239 -77.20288 5895 ft 274 kts 120°
2026-04-15 07:10 38.79284 -77.18171 5761 ft 275 kts 120°
2026-04-15 07:11 38.78323 -77.16045 5605 ft 276 kts 120°
2026-04-15 07:11 38.77238 -77.14012 5400 ft 278 kts 133°
2026-04-15 07:11 38.75744 -77.12441 5222 ft 278 kts 150°
2026-04-15 07:11 38.73975 -77.11456 5044 ft 278 kts 167°
2026-04-15 07:12 38.72065 -77.11119 4862 ft 276 kts 181°
2026-04-15 07:12 38.70142 -77.11036 4683 ft 277 kts 181°
2026-04-15 07:12 38.68210 -77.10929 4499 ft 278 kts 180°
2026-04-15 07:12 38.66272 -77.10816 4348 ft 279 kts 180°
2026-04-15 07:13 38.64332 -77.10708 4164 ft 280 kts 180°
2026-04-15 07:13 38.62383 -77.10602 4007 ft 278 kts 180°
2026-04-15 07:13 38.60471 -77.10509 4007 ft 273 kts 181°
2026-04-15 07:13 38.58576 -77.10379 3998 ft 273 kts 173°
2026-04-15 07:14 38.56856 -77.09457 3992 ft 275 kts 144°
2026-04-15 07:14 38.55635 -77.07615 3993 ft 271 kts 116°
2026-04-15 07:14 38.55229 -77.05362 3991 ft 253 kts 86°
2026-04-15 07:14 38.55691 -77.03307 3989 ft 234 kts 55°
2026-04-15 07:15 38.56701 -77.01769 3993 ft 220 kts 37°
2026-04-15 07:15 38.57982 -77.00791 3994 ft 211 kts 17°
2026-04-15 07:15 38.59407 -77.00435 3987 ft 208 kts 354°
2026-04-15 07:15 38.60772 -77.00953 3995 ft 206 kts 335°
2026-04-15 07:16 38.62165 -77.01425 3998 ft 210 kts 349°
2026-04-15 07:16 38.63633 -77.01613 3910 ft 216 kts 351°
2026-04-15 07:16 38.65184 -77.01764 3639 ft 229 kts 352°
2026-04-15 07:16 38.66796 -77.01924 3344 ft 231 kts 352°
2026-04-15 07:17 38.68367 -77.02088 3012 ft 222 kts 352°
2026-04-15 07:17 38.69881 -77.02231 2724 ft 214 kts 352°
2026-04-15 07:17 38.71303 -77.02383 2458 ft 194 kts 352°
2026-04-15 07:17 38.72573 -77.02506 2212 ft 174 kts 352°
2026-04-15 07:18 38.73350 -77.02583 2076 ft 164 kts 352°
2026-04-15 07:18 38.74797 -77.02727 1762 ft 152 kts 353°
2026-04-15 07:18 38.75901 -77.02842 1588 ft 173 kts 353°
2026-04-15 07:18 38.77007 -77.02958 1570 ft 148 kts 353°
2026-04-15 07:19 38.78012 -77.03057 1333 ft 145 kts 353°
2026-04-15 07:19 38.79041 -77.03159 1053 ft 150 kts 354°
2026-04-15 07:19 38.79663 -77.03223 903 ft 151 kts 354°
2026-04-15 07:19 38.80707 -77.03329 734 ft 148 kts 355°
2026-04-15 07:20 38.81725 -77.03448 539 ft 148 kts 354°
2026-04-15 07:20 38.82752 -77.03546 361 ft 147 kts 357°
2026-04-15 07:20 38.83755 -77.03627 167 ft 138 kts 354°
2026-04-15 07:20 38.84649 -77.03726 18 ft 101 kts 355°
2026-04-15 07:21 38.84933 -77.03753 18 ft 0 kts 355°
2026-04-15 07:21 38.85010 -77.03761 18 ft 19 kts 355°
2026-04-15 07:21 38.85155 -77.03776 18 ft 23 kts 355°
2026-04-15 07:22 38.85259 -77.03862 17 ft 14 kts 280°
2026-04-15 07:22 38.85258 -77.03890 18 ft 0 kts 255°
2026-04-15 07:23 38.85256 -77.03898 18 ft 5 kts 243°
2026-04-15 07:23 38.85180 -77.03919 18 ft 16 kts 178°
2026-04-15 07:23 38.85057 -77.03907 18 ft 20 kts 175°
2026-04-15 07:24 38.84931 -77.03895 18 ft 18 kts 175°
2026-04-15 07:24 38.84793 -77.03882 18 ft 22 kts 184°
2026-04-15 07:24 38.84650 -77.03962 18 ft 24 kts 199°
2026-04-15 07:24 38.84551 -77.04064 19 ft 20 kts 252°
2026-04-15 07:25 38.84577 -77.04179 18 ft 14 kts 277°
2026-04-15 07:25 38.84568 -77.04318 18 ft 18 kts 292°
2026-04-15 07:25 38.84649 -77.04440 18 ft 17 kts 270°
2026-04-15 07:25 38.84576 -77.04573 18 ft 20 kts 230°
2026-04-15 07:26 38.84522 -77.04715 18 ft 11 kts 274°
2026-04-15 07:26 38.84512 -77.04762 18 ft 5 kts 102°
2026-04-15 07:26 38.84524 -77.04745 18 ft 0 kts 35°